Torna al catalogo

THORAD AGENA D DEB

AttivoSSO
NORAD 4677·DEBRIS·🇺🇸 United States

Lanciato Apr 8, 1970 da Vandenberg Space Force Base

Loading…

Prossimi Passaggi (prossime 24 ore)

TLE

AggiornatoSource: Space-Track

Epoca: Sep 14, 2026, 13:40 UTC

1 04677U 70025BA  26257.56953797  .00000105  00000-0  20887-3 0  9995
2 04677  99.9984  19.4461 0008519 289.8940 134.2803 13.58505889790696

Traccia THORAD AGENA D DEB in tempo reale con AllMySat

Download on the App Store